Location: ??????
(41.3747°N, 22.5491°E)
Time: 04:43:06
(UTC+00:00)

Okean O Rocket - Pass Details

Date: 01 December 2020
Orbit: 622 x 645 km, 98.2° (Epoch: 20 January)

Event Time Altitude Azimuth Distance (km) Brightness Sun altitude
Rises 16:17:27 0° 176° (S) 2,894 5.2 -14.0°
Reaches altitude 10° 16:19:40 10° 180° (S) 1,994 4.4 -14.4°
Maximum altitude 16:23:56 56° 259° (W) 750 2.3 -15.2°
Drops below altitude 10° 16:28:15 10° 338° (NNW) 2,022 4.3 -16.0°
Sets 16:30:31 0° 343° (NNW) 2,938 5.1 -16.4°
